Location: Carlisle
(34.5501°N, 84.5969°W)
Time: 12:04:18
(UTC+00:00)

X-37B - Visible Passes

Search period start: 05 December 2021 00:00
Search period end: 15 December 2021 00:00
Orbit: 330 x 341 km, 45.0° (Epoch: 20 November)

Date Brightness Start Highest point End Pass type
(mag) Time Alt. Az. Time Alt. Az. Time Alt. Az.
06 Dec 1.9 00:12:54 10° WSW 00:14:56 34° WNW 00:14:56 34° WNW visible
06 Dec 0.6 22:57:50 10° SW 23:00:38 55° SE 23:03:24 10° ENE visible
07 Dec 3.5 00:34:03 10° WNW 00:34:38 13° WNW 00:34:38 13° WNW visible
07 Dec 1.1 23:18:19 10° WSW 23:21:05 44° NNW 23:23:02 17° NE visible
08 Dec 2.3 23:39:28 10° WNW 23:41:42 20° NNW 23:42:38 17° N visible
10 Dec 3.0 00:01:04 10° NW 00:02:11 13° NNW 00:02:11 13° NNW visible
11 Dec 2.8 23:06:29 10° NW 23:07:55 13° NNW 23:09:21 10° NNE visible
12 Dec 2.9 23:28:11 10° NNW 23:28:47 10° N 23:29:25 10° N visible
13 Dec 3.0 23:48:44 10° NNW 23:49:10 11° N 23:49:10 11° N visible
